Regional Weather Roundup
Issued by NWS

Home | Current Version | Previous Version | Text Only | Print | Product List | Glossary On
Versions: 1 2 3 4 5 6 7 8 9 10 11 12 13 14 15 16 17 18 19 20 21 22 23 24 25 26 27 28 29 30 31 32 33 34 35 36 37 38 39 40 41 42 43 44 45 46 47 48 49 50
000
ASUS46 KSTO 261009
RWRCA

NORTHERN AND CENTRAL CA REGIONAL WEATHER ROUNDUP
NATIONAL WEATHER SERVICE SACRAMENTO CA
300 AM PDT SAT JUL 26 2014

NOTE: FAIR INDICATES FEW OR NO CLOUDS BELOW 12,000 FEET WITH NO
SIGNIFICANT WEATHER AND/OR OBSTRUCTIONS TO VISIBILITY.

CAZ001-003-261100-
NORTHWEST AREA

CITY           SKY/WX    TMP DP  RH WIND       PRES   REMARKS
CRESCENT CITY  PTCLDY    51  50  96 NW6       30.01S FOG
ARCATA         NOT AVBL
SHELTER COVE   NOT AVBL
UKIAH          CLEAR     64  48  56 CALM      29.89F
$$

CAZ006-505>513-261100-
BAY AREA

CITY           SKY/WX    TMP DP  RH WIND       PRES   REMARKS
SANTA ROSA     CLEAR     57  52  83 CALM      29.86S
SAN RAFAEL     N/A       65  MM  MM MISG
NAPA           CLEAR     60  57  89 E3        29.87F
CONCORD        CLEAR     64  57  78 NW6       29.85S
OAKLAND CITY   N/A       65  MM  MM MISG
OAKLAND        CLEAR     64  58  80 NW9       29.88S
SAN FRAN CITY  N/A       61  MM  80 MISG
SAN FRAN ARPT  CLEAR     63  57  81 W10       29.88S
LIVERMORE      CLEAR     70  47  43 CALM      29.86S
HAYWARD        CLEAR     65  59  81 NW3       29.88R
REDWOOD CITY   N/A       MM  MM  MM MISG
MOFFETT ARPT   CLEAR     67  60  78 CALM      29.88F
SAN JOSE ARPT  CLEAR     69  48  47 SE5       29.87F
$$
CAZ034-037-514>518-261100-
CENTRAL COAST

CITY           SKY/WX    TMP DP  RH WIND       PRES   REMARKS
WATSONVILLE    MOCLDY    57  53  86 CALM      29.92S FOG
SALINAS        CLOUDY    60  58  92 CALM      29.92S FOG
MONTEREY       CLOUDY    60  57  89 SE3       29.92S FOG
PT PIEDRAS BLS NOT AVBL
SAN LUIS OBISP CLOUDY    59  58  96 CALM      29.91F
SANTA MARIA    CLOUDY    63  58  83 E3        29.92F HAZE
$$
CAZ015-016-261100-
NORTHERN SACRAMENTO VALLEY

CITY           SKY/WX    TMP DP  RH WIND       PRES   REMARKS
REDDING        CLEAR     70  39  32 CALM      29.86S
RED BLUFF      CLEAR     72  37  28 NW7       29.85S
OROVILLE       CLEAR     82  38  20 E10       29.84S
$$
CAZ016>018-261100-
SOUTHERN SACRAMENTO VALLEY

CITY           SKY/WX    TMP DP  RH WIND       PRES   REMARKS
AUBURN         CLEAR     75  43  31 E12       29.92S
BEALE AFB      CLEAR     78  40  25 E10       29.82F
LINCOLN        FAIR      70  39  32 CALM      29.82F
MARYSVILLE     CLEAR     69  49  48 CALM      29.83S
SAC INTL ARPT  CLEAR     78  49  35 S9        29.82S
MATHER AIRPORT MOCLDY    68  45  42 SE3       29.84
DOWNTOWN SAC   N/A       72  MM  MM MISG
SAC EXEC ARPT  CLEAR     67  53  61 S3        29.83S
VACAVILLE      CLEAR     72  45  37 SW10      29.83S
TRAVIS AFB     CLEAR     72  51  47 SW16      29.81S
$$
CAZ019>021-261100-
SAN JOAQUIN VALLEY

CITY           SKY/WX    TMP DP  RH WIND       PRES   REMARKS
STOCKTON       CLEAR     70  52  52 E3        29.83F
MODESTO        PTCLDY    71  55  56 CALM      29.83S
MERCED         PTCLDY    74  54  49 W5        29.83F
LEMOORE        NOT AVBL
FRESNO         MOCLDY    80  53  39 NW6       29.84F
HANFORD        PTCLDY    78  53  41 NW8       29.84F
PORTERVILLE    CLEAR     72  54  53 SE6       29.86F
BAKERSFIELD    MOCLDY    81  45  28 CALM      29.85S
$$
CAZ011-012-071-261100-
NORTHERN MOUNTAINS

CITY           SKY/WX    TMP DP  RH WIND       PRES   REMARKS
YREKA          CLEAR     61  36  39 E6        30.08R
MOUNT SHASTA   CLEAR     59  40  49 CALM      30.08F
ALTURAS        CLEAR     54  27  35 NE3       30.13F
$$
CAZ011-012-071-261100-
SIERRA NEVADA MTNS

CITY           SKY/WX    TMP DP  RH WIND       PRES   REMARKS
BLUE CANYON    CLEAR     68  30  24 E3        30.18F
TRUCKEE        CLEAR     43  36  75 CALM      30.24F
TAHOE VLY ARPT CLEAR     46  37  71 S3        30.25S
MAMMOTH LAKES  FAIR      45  25  45 CALM      30.30S
$$




USA.gov is the U.S. government's official web portal to all federal, state and local government web resources and services.